Regional Weather Roundup
Issued by NWS Grand Forks, ND

Home | Current Version | Previous Version | Text Only | Print | Product List | Glossary Off
Versions: 1 2 3 4 5 6 7 8 9 10 11 12 13 14 15 16 17 18 19 20 21 22 23 24 25 26 27 28 29 30 31 32 33 34 35 36 37 38 39 40 41 42 43 44 45 46 47 48 49 50

080
ASUS43 KFGF 231510
RWRFGF
PRAIRIE TO PINES  WEATHER ROUNDUP
NATIONAL WEATHER SERVICE EASTERN NORTH DAKOTA/GRAND FORKS ND
1000 AM CDT TUE AUG 23 2016

 **SATELLITE DATA USED TO AUGMENT SKY COVER AT AUTOMATED STATIONS**
 *****  WEATHER ACROSS EASTERN NORTH DAKOTA  *****

CITY           SKY/WX    TMP DP  RH WIND       PRES   REMARKS
GRAND FORKS    MOSUNNY   76  64  66 S20       29.64R
GRAND FRKS AFB MOSUNNY   74  64  69 S21       29.64R
GRAND FRKS NWS   N/A     73 N/A N/A S16         N/A
DEVILS LAKE    SUNNY     74  65  73 S13       29.61S
FARGO          MOSUNNY   75  62  64 SE14      29.70S
WAHPETON ARPT  MOSUNNY   73  61  64 S14       29.74S
$$

 ***** WEATHER ACROSS CENTRAL AND WESTERN NORTH DAKOTA  *****

CITY           SKY/WX    TMP DP  RH WIND       PRES   REMARKS
BISMARCK       PTSUNNY   71  67  87 NW16      29.64S
MINOT          CLOUDY    68  54  60 W22G29    29.66R
JAMESTOWN      CLOUDY    68  64  87 S12       29.64S
MINOT AFB      CLOUDY    70  48  46 NW24G36   29.64S
GARRISON         N/A     71  55  56 NW21G26   29.68R
WILLISTON      PTSUNNY   68  36  30 NW20G29   29.80R
DICKINSON      SUNNY     68  37  32 NW23G30   29.79R
HETTINGER      SUNNY     69  41  36 NW24G35   29.80R
$$

 *****  OTHER AIRPORT OBSERVATIONS IN OUR AREA  *****

CITY           SKY/WX    TMP DP  RH WIND       PRES   REMARKS
WALHALLA       NOT AVBL
GRAFTON AIRPOR FAIR      73  66  78 S15       29.64F
VALLEY CITY AR FAIR      72  66  83 S21       29.69S
CANDO          NOT AVBL
CAVALIER APRT  FAIR      72  64  78 S13G20    29.62R
GWINNER        FAIR      75  64  69 S18       29.70S
SHEYENNE NWR     N/A     77  64  63 S8        29.95S
ROLLA          PTSUNNY   66  66 100 E5        29.61F
 ***** THE ABOVE OBSERVATIONS ARE NON NWS ARE NOT QUALITY
       CONTROLLED AND MAY MIS-REPORT RAIN FOR SNOW...
$$

  *****  WEATHER ACROSS NORTHERN MINNESOTA  *****

CITY           SKY/WX    TMP DP  RH WIND       PRES   REMARKS
FLAG ISLAND    PTSUNNY   72  66  83 CALM      29.79R HAZE
WARROAD        CLOUDY    72  66  83 E7        29.73F
ROSEAU         CLOUDY    72  64  78 E7        29.70F
HALLOCK        SUNNY     73  66  78 S13       29.63F
THF RVR FALLS  CLOUDY    72  62  71 S16       29.69S
BAUDETTE       CLOUDY    74  64  71 S9G20     29.76R
WASKISH        CLOUDY    73  64  73 S7        29.77F
CROOKSTON      CLOUDY    72  63  73 S13       29.67R
GREENBUSH NDAW   N/A     70  64  83 SE10        N/A
$$
  *****  WEATHER ACROSS CENTRAL AND WEST MINNESOTA  *****

CITY           SKY/WX    TMP DP  RH WIND       PRES   REMARKS
FOSSTON        CLOUDY    70  61  73 S14G20    29.73F
BEMIDJI        CLOUDY    72  62  71 S10       29.79S
PARK RAPIDS    CLOUDY    74  61  63 S9        29.82R
ELBOW LAKE     FAIR      73  63  71 S20       29.79R
WADENA         MOSUNNY   73  63  68 S13       29.81F
DETROIT LAKES  MOSUNNY   73  61  64 S13       29.79S
MOORHEAD       SUNNY     73  63  68 S14G20    29.72F
FERGUS FALLS     N/A     73  63  68 S15       29.78S
MORRIS MN      SUNNY     75  64  69 S15G22    29.78F
STAPLES        NOT AVBL
$$
  *****  WEATHER ELSEWHERE ACROSS MINNESOTA  *****

CITY           SKY/WX    TMP DP  RH WIND       PRES   REMARKS
DULUTH         MOSUNNY   74  63  68 S13       29.91S
INTRNTL FALLS  CLOUDY    71  63  75 MISG      29.82R
ELY            CLOUDY    72  61  68 S10G16    29.89S
CLOQUET        SUNNY     72  61  68 S14G21    29.91S
WHEATON        NOT AVBL
BRAINERD       MOSUNNY   72  63  73 S10       29.86S
HIBBING        MOSUNNY   69  61  75 S8G17     29.87S
ALEXANDRIA     SUNNY     73  62  68 S18       29.84S
SAINT CLOUD    SUNNY     73  64  73 S15       29.88S
MINNEAPOLIS    MOSUNNY   75  61  61 S13       29.94F
$$

  *****  WEATHER ACROSS SOUTH DAKOTA  *****

CITY           SKY/WX    TMP DP  RH WIND       PRES   REMARKS
SIOUX FALLS    PTSUNNY   73  65  75 S18G24    29.86S
BROOKINGS      MOSUNNY   72  64  76 S15       29.83F
WATERTOWN      SUNNY     74  63  68 S15G24    29.79S
HURON          SUNNY     75  62  64 S17       29.74F
SISSETON         N/A     75  63  66 S15       29.72S
ABERDEEN       SUNNY     75  61  61 S20G30    29.68S
MITCHELL       CLOUDY    76  63  64 S20G28    29.78F
PIERRE         SUNNY     79  62  56 S17G24    29.66F
MOBRIDGE       PTSUNNY   76  62  62 S7        29.63R
RAPID CITY     SUNNY     72  35  25 NW33G45   29.83R
$$

  *****  SOME WEATHER IN NEARBY STATES *****

CITY           SKY/WX    TMP DP  RH WIND       PRES   REMARKS
GLASGOW MT     CLOUDY    58  42  55 W15G22    29.90R
GREAT FALLS MT SUNNY     61  32  33 SW14      30.03R
CHEYENNE WY    SUNNY     75  24  15 NW23G36   30.06R
SCOTTSBLUFF NE SUNNY     69  52  54 NW9       29.94R
OMAHA NE       CLOUDY    72  67  84 S17       29.95F
DES MOINES IA  PTSUNNY   74  66  76 S15       30.03F
DAVENPORT IA   SUNNY     74  62  66 S8        30.16S
CHICAGO IL     MOSUNNY   75  60  59 S13G18    30.22R
EAU CLAIRE WI  SUNNY     74  62  66 S13       30.01F
LA CROSSE WI   SUNNY     74  68  81 S16       30.06F
$$

  *****  SOME NATIONAL WEATHER *****

CITY           SKY/WX    TMP DP  RH WIND       PRES   REMARKS
LA GUARDIA NY  SUNNY     76  47  35 NW7       30.32S
RALEIGH NC     MOSUNNY   82  66  58 VRB5      30.31S
ATLANTA GA     MOSUNNY   83  68  60 S3        30.28R
NEW ORLEANS LA MOSUNNY   90  76  63 N5        30.21R HX 101
OKLAHOMA CITY  CLOUDY    79  72  79 S16       30.07R
ALBUQUERQUE NM MOSUNNY   64  54  69 CALM      30.24R
SALT LAKE CITY PTSUNNY   74  43  32 SE8       30.07R
LOS ANGELES CA MOSUNNY   68  61  78 CALM      30.01R
BOISE ID       SUNNY     57  32  38 CALM      30.12R
SEATTLE WA     MOSUNNY   59  50  72 CALM      30.20R
$$

*** WEATHER ACROSS MANITOBA...SASKATCHEWAN AND ONTARIO ***
                ***ONTARIO***

CITY           SKY/WX    TMP DP  RH WIND       PRES   REMARKS
GERALDTON      MOSUNNY   73  66  78 SW8       29.91S
THUNDER BAY    CLOUDY    75  64  69 VRB2      29.90F
SIOUX LOOKOUT  PTSUNNY   72  66  83 S6        29.84R
TORONTO        MOSUNNY   77  54  44 SW15      30.23F
BIG TROUT LK   SUNNY     59  50  72 VRB2      29.95R
PICKLE LAKE    MOSUNNY   64  59  82 E8        29.90F
DRYDEN         SUNNY     70  64  83 SE12      29.83R
KENORA         CLOUDY    68  66  94 E7        29.80S
$$
                *** MANITOBA***

CITY           SKY/WX    TMP DP  RH WIND       PRES   REMARKS
BRANDON        SHOWER    66  64  94 W22G32    29.73R
DAUPHIN        CLOUDY    64  64 100 NW9       29.68R
ISLAND LAKE    PTSUNNY   63  52  67 NE2       29.91R
PILOT MOUND      N/A     72  66  83 S10         N/A
THE PAS        CLOUDY    63  50  63 E16G25    29.77R
THOMPSON       PTSUNNY   59  48  67 SE5       29.95R
WINNIPEG       MOSUNNY   75  66  73 SE15      29.63F
LYNN LAKE      PTSUNNY   61  46  59 MISG      29.97R
CHURCHILL      MOSUNNY   55  50  82 NW17      29.90R
GILLAM         PTSUNNY   61  50  67 N7        29.94S
$$
                ***SASKATCHEWAN***

CITY           SKY/WX    TMP DP  RH WIND       PRES   REMARKS
ESTEVAN        PTSUNNY   61  50  67 NW16      29.74S
KINDERSLEY     LGT RAIN  52  50  93 NW15      29.70R
LLOYDMINSTER   LGT RAIN  55  54  94 N15G23    29.74R
PRINCE ALBERT  PTSUNNY   59  55  88 S5        29.69R
REGINA         PTSUNNY   57  48  72 SW9       29.77S
YORKTON        LGT RAIN  63  59  88 VRB15G22  29.69S
N. BATTLEFORD  CLOUDY    57  55  94 N5        29.67R
LA RONGE       TSTM      59  50  72 NE15G24   29.86R
SASKATOON      PTSUNNY   57  48  72 S9        29.68R
SWIFT CURRENT  PTSUNNY   54  46  76 W24G32    29.75R
$$
NOTE: THESE ARE AUTOMATED STATIONS WITH LIMITED QUALITY CONTROL
      "FAIR" INDICATES FEW OR NO CLOUDS BELOW 12,000 FEET WITH NO
      SIGNIFICANT WEATHER AND/OR OBSTRUCTIONS TO VISIBILITY.
      SKY/WX - SKY CONDITION AND SIGNIFICANT WEATHER.
      TMP - AIR TEMPERATURE.    DP   - DEWPOINT TEMPERATURE.
      RH  - RELATIVE HUMIDITY.  PRES - PRESSURE.
      HX  - HEAT INDEX.         WCI  - WIND CHILL INDEX.
$




USA.gov is the U.S. government's official web portal to all federal, state and local government web resources and services.